Home   Weather   San Juan   Past weeks

Flag for Puerto Rico Past Weather in San Juan, Puerto Rico — Yesterday and Last 2 Weeks

Now
81 °F

Passing clouds.


Feels Like: 87 °F
Forecast: 81 / 87 °F
Wind: 7 mph from East

Location: Luis Munoz Marin

Current Time: Aug 31, 2016 at 11:43:47 PM

Latest Report: Aug 31, 2016 at 10:56 PM


Visibility: 10 mi

Pressure: 30.06 "Hg

Humidity: 82%

Dew Point: 75 °F

Location of San JuanLocation

Past Weather in San Juan — Graph

°F

San Juan Temperature Yesterday

Maximum temperature yesterday: 90 °F (at 11:56 AM)
Minimum temperature yesterday: 80 °F (at 2:56 AM)
Average temperature yesterday: 85 °F

High & Low Weather Summary for the Past Weeks

 TemperatureHumidityPressure
High93 °F (Aug 29, 12:56 PM)100% (Aug 24, 12:56 AM)30.06 "Hg (Aug 24, 12:56 AM)
Low78 °F (Aug 23, 5:56 AM)49% (Aug 29, 12:56 PM)29.82 "Hg (Aug 24, 4:56 PM)
Average84 °F79%29.97 "Hg
* Reported Aug 16 9:56 PM — Aug 31 9:56 PM, San Juan, Weather by CustomWeather, © 2016

Note: Actual official high and low records may vary slightly from our data, if they occured in-between our weather recording intervals... More about our weather records

Advertising

San Juan Weather History for the Previous 24 Hours

Scroll right to see more
 ConditionsComfort  
Time TempWeatherWind HumidityBarometerVisibility
9:56 PM
Wed, Aug 31
82 °FPassing clouds.10 mph79%30.06 "Hg10 mi
8:56 PM83 °FPassing clouds.12 mph82%30.03 "Hg10 mi
7:56 PM84 °FPassing clouds.12 mph77%30.02 "Hg10 mi
6:56 PM83 °FScattered clouds.14 mph79%29.99 "Hg10 mi
5:56 PM85 °FScattered clouds.16 mph75%29.98 "Hg10 mi
4:56 PM86 °FScattered clouds.16 mph77%29.97 "Hg10 mi
3:56 PM88 °FScattered clouds.18 mph67%29.97 "Hg10 mi
2:56 PM89 °FPassing clouds.20 mph68%29.98 "Hg10 mi
1:56 PM89 °FScattered clouds.20 mph65%29.99 "Hg10 mi
12:56 PM89 °FScattered clouds.16 mph70%30.01 "Hg10 mi
11:56 AM88 °FScattered clouds.21 mph73%30.03 "Hg10 mi
10:56 AM88 °FScattered clouds.20 mph70%30.05 "Hg10 mi
9:56 AM86 °FScattered clouds.18 mph75%30.05 "Hg10 mi
8:56 AM86 °FScattered clouds.13 mph77%30.04 "Hg10 mi
7:56 AM83 °FScattered clouds.5 mph82%30.03 "Hg10 mi
6:56 AM82 °FPassing clouds.5 mph82%30.01 "Hg10 mi
5:56 AM81 °FPassing clouds.6 mph85%30.01 "Hg10 mi
4:56 AM80 °FPassing clouds.7 mph87%30.00 "Hg10 mi
3:56 AM80 °FPassing clouds.6 mph90%30.00 "Hg10 mi
2:56 AM82 °FPassing clouds.8 mph82%30.00 "Hg10 mi
1:56 AM81 °FPassing clouds.6 mph88%30.02 "Hg10 mi
12:56 AM82 °FPassing clouds.8 mph88%30.03 "Hg10 mi
11:56 PM
Tue, Aug 30
83 °FLight rain. Passing clouds.10 mph85%30.04 "Hg10 mi
Weather by CustomWeather, © 2016

See weather overviewHow to use our weather pages